User: anonymous   Login
Location: Pasadena, ca
(34.1243°N, 118.1037°W)
Time: 22:52:00
(UTC-07:00)
Language:

Tiangong 2 - Orbit

View from above orbital plane
View from above orbital plane
View from above satellite
View from above satellite

Ground track
Ground track

The orbit data is extracted from the following two-line orbital elements,

1 41765U 16057A   18112.82962711  .00005968  00000-0  73417-4 0  9995
2 41765  42.7848 312.9712 0004623 249.4240 181.1641 15.61035144 91331
Epoch (UTC): 22 April 2018 19:54:39
Eccentricity: 0.0004623
inclination: 42.7848°
perigee height: 381 km
apogee height: 388 km
right ascension of ascending node: 312.9712°
argument of perigee: 249.4240°
revolutions per day: 15.61035144
mean anomaly at epoch: 181.1641°
orbit number at epoch: 9133

The dashed part of the orbit path shows where the satellite is in the earth's shadow,  

DLR